Theta_e
308 308 311 313 312 312 312 311 310 310 312 312 309 309 310 310 310 313 318 318 320 320 318 315 318 320 320 317 318 320 317 318 323 341 343 338 339 339 340 340 339 337 337 336 337
308 308 309 311 315 313 312 313 312 311 313 311 309 309 309 309 312 317 318 322 319 318 316 317 316 317 315 318 319 318 317 320 334 337 342 341 341 346 345 342 339 338 337 337 337
309 309 309 310 313 317 316 314 313 312 313 311 310 310 310 312 326 324 319 321 316 316 315 319 321 318 318 318 319 319 319 324 339 342 342 341 342 340 341 345 339 339 338 337 337
310 310 310 310 311 316 317 314 314 313 313 311 311 311 312 318 332 324 321 317 318 315 317 323 318 319 320 320 320 323 322 333 341 341 343 346 341 343 342 342 338 337 337 337 337
311 311 311 311 311 314 318 315 314 314 314 313 313 316 319 327 325 321 318 318 317 317 321 320 317 318 319 320 321 323 324 334 339 341 343 340 339 340 343 338 340 338 337 336 337
312 312 311 311 311 312 316 317 314 314 314 314 315 319 325 328 325 318 319 320 318 320 323 321 318 320 320 321 321 323 323 332 339 340 341 343 341 346 347 339 341 342 339 343 346
312 312 312 312 312 313 314 317 316 315 315 315 315 322 329 329 324 322 323 321 320 321 321 322 322 320 319 319 321 324 323 322 337 338 338 336 344 346 345 342 343 345 346 346 345
312 312 312 312 312 312 314 315 319 316 315 316 316 324 333 331 324 321 321 322 320 320 321 323 322 319 320 319 321 323 321 319 320 336 339 336 346 344 343 346 346 347 347 346 344
312 312 312 312 312 312 314 314 319 319 318 317 323 326 334 325 323 323 321 320 321 321 322 322 321 319 318 319 318 322 318 320 320 320 337 329 349 346 344 346 346 345 345 346 345
310 310 311 312 313 312 314 316 322 323 323 323 324 326 327 328 322 323 322 322 322 321 320 320 316 316 314 315 316 320 319 317 319 321 321 322 337 344 344 345 346 345 345 346 345
309 309 310 311 313 313 315 318 321 328 321 327 327 326 326 325 324 323 323 323 323 322 319 319 316 314 315 316 319 320 319 320 324 322 321 321 342 341 340 340 345 344 345 345 345
310 310 310 311 313 314 317 321 319 319 318 321 321 322 323 324 323 322 322 322 321 321 320 319 316 317 319 319 320 319 320 321 326 325 325 326 326 335 336 333 342 342 345 344 342
312 312 312 312 313 319 317 320 318 320 320 321 321 322 322 323 323 322 321 321 321 320 319 318 320 322 321 320 321 320 322 321 323 328 327 328 326 322 334 332 330 337 342 342 341
314 314 313 312 317 314 320 320 320 320 321 325 325 323 321 321 322 323 322 321 321 321 320 320 322 322 321 322 321 321 321 323 322 327 328 327 323 322 330 334 331 328 342 341 339
312 312 310 310 313 318 318 319 319 321 332 328 322 322 320 321 323 322 323 321 321 322 322 323 322 323 324 324 323 320 321 326 323 325 325 323 323 324 327 329 331 328 340 341 339
301 302 306 309 312 313 316 319 320 324 333 327 324 323 321 320 323 322 322 321 321 321 322 323 323 324 323 323 323 324 324 326 324 321 322 321 324 323 322 330 333 333 341 341 337
301 301 304 307 313 313 318 319 324 327 328 326 325 323 321 323 322 322 322 320 319 322 322 324 323 325 324 325 324 322 321 322 324 323 323 321 323 322 334 333 333 335 338 339 336
301 302 304 308 308 316 319 321 327 326 328 326 325 324 323 323 323 323 322 320 320 321 321 324 323 323 324 324 325 324 321 320 326 327 326 325 329 332 329 328 327 330 333 336 334
300 305 312 309 313 318 320 323 323 326 326 324 322 324 324 323 323 322 322 322 322 321 323 325 326 326 324 324 324 322 324 321 327 327 324 325 331 333 331 330 330 329 328 336 333
307 311 313 312 315 320 321 322 323 322 322 322 322 323 323 324 324 322 323 323 324 324 323 325 327 328 325 324 324 324 324 322 324 328 330 327 328 336 334 332 330 329 329 335 332
310 318 319 319 317 322 323 321 320 320 320 322 323 322 322 324 324 326 324 324 325 324 324 324 327 328 329 326 326 325 323 322 322 326 328 330 331 331 333 333 331 330 329 331 330
316 320 319 320 323 323 322 321 318 320 321 322 322 323 323 323 325 328 330 330 326 326 324 325 327 327 329 327 327 325 325 323 324 325 327 326 327 330 327 328 331 331 332 328 327
315 316 315 318 322 322 321 321 321 321 322 323 325 323 322 322 325 326 327 328 327 329 329 332 329 330 328 325 326 328 328 327 329 330 328 330 329 330 330 327 329 329 331 331 328
315 318 318 318 320 322 322 322 321 322 322 323 326 325 325 325 324 326 324 325 326 327 330 331 331 330 326 327 328 331 330 329 329 330 327 326 325 326 328 328 326 325 326 326 328
314 316 319 319 320 321 321 321 321 321 322 325 326 325 324 327 327 326 326 326 325 329 327 326 329 332 331 330 328 327 327 326 328 330 332 328 326 326 326 327 327 325 325 328 330
316 317 313 314 321 323 323 325 326 324 320 322 324 327 325 325 327 327 326 327 330 329 329 332 329 329 331 330 328 327 326 326 325 326 329 329 326 324 325 327 328 326 327 327 334
312 314 318 316 318 321 323 324 325 324 325 325 324 323 324 325 327 327 327 328 330 330 329 333 330 332 332 331 329 329 327 326 326 325 327 326 324 325 324 326 325 327 328 333 331
Wind_Speed
31 33 31 22 16 14 14 14 12 12 11 10 9 9 9 11 9 8 6 7 9 14 11 13 16 22 21 6 8 3 3 6 9 7 8 4 16 4 9 16 8 10 11 17 31
31 33 32 31 22 17 15 14 12 10 9 8 8 9 8 9 9 11 12 11 9 10 10 12 11 13 4 6 4 4 2 7 6 6 14 15 15 7 7 11 11 17 18 26 30
32 33 32 33 29 22 16 13 11 8 7 7 8 7 7 8 3 7 14 13 9 8 11 18 25 10 8 6 9 8 7 5 19 27 24 24 24 13 22 6 18 20 18 16 17
32 33 33 33 33 27 19 12 11 8 7 8 7 7 6 2 2 4 12 11 5 8 10 12 8 7 4 6 8 3 7 16 21 26 17 16 13 11 21 10 16 13 11 11 7
32 33 33 34 32 30 22 14 11 8 7 7 8 8 3 2 8 6 10 9 5 6 12 8 10 7 7 8 7 4 2 16 18 26 26 22 20 21 13 23 11 13 13 10 7
33 33 33 33 32 29 24 17 11 8 6 7 8 10 1 4 9 8 8 8 7 12 17 17 8 8 8 7 3 2 5 18 14 21 18 20 14 15 18 24 7 16 9 10 12
33 34 33 33 32 29 23 19 13 10 8 7 8 6 5 11 6 5 9 8 9 17 13 20 10 7 10 11 8 4 5 3 10 9 6 13 11 11 22 18 10 10 11 12 10
33 34 34 33 32 31 24 20 16 13 11 9 8 1 6 6 6 7 9 16 15 17 13 15 18 8 5 7 10 5 6 3 7 12 10 7 10 8 13 15 12 12 10 10 9
33 34 35 34 32 32 26 24 18 13 12 11 4 2 8 6 7 11 14 14 10 9 13 11 9 4 10 6 6 2 5 7 10 10 11 6 18 15 16 15 14 12 11 11 9
33 34 35 34 32 33 27 27 15 10 6 5 5 5 8 10 9 14 11 15 7 6 5 4 3 3 6 3 6 7 6 8 9 8 9 8 11 17 19 19 17 15 15 14 10
34 35 35 35 33 29 27 13 6 2 2 7 5 7 21 8 6 3 9 4 8 3 5 8 2 6 13 11 11 7 7 9 2 6 7 8 17 17 15 14 17 16 16 16 14
32 34 36 35 34 21 18 2 8 10 12 11 17 18 30 17 4 9 13 5 7 6 7 6 9 13 11 11 11 10 8 6 3 7 6 5 3 10 14 10 19 17 19 18 16
32 33 36 36 26 7 24 16 19 21 4 15 14 14 17 10 6 8 10 9 7 9 10 9 12 13 13 10 10 6 3 7 3 4 4 4 4 7 11 12 10 15 17 21 21
31 31 32 39 7 27 11 21 28 20 3 7 7 9 11 6 8 16 18 9 6 10 11 8 16 11 5 3 5 5 7 8 10 2 2 5 4 7 9 13 11 9 17 18 18
31 31 30 26 20 11 14 29 28 12 4 8 5 12 7 8 4 8 16 6 10 14 6 10 8 5 1 5 7 9 7 4 9 1 4 9 3 9 5 7 10 10 17 20 20
31 30 31 20 20 22 23 28 19 1 6 4 6 6 5 10 9 6 4 5 6 8 12 14 7 4 7 7 4 4 6 7 6 4 4 8 4 11 6 9 8 7 20 21 21
32 30 28 23 8 15 18 13 3 3 9 6 7 6 7 7 9 6 7 5 5 2 7 9 7 3 2 3 4 8 7 4 4 3 7 10 4 16 1 9 5 12 18 21 21
33 32 27 27 24 15 18 4 4 10 11 7 4 3 10 11 12 11 8 6 9 8 7 5 8 9 8 7 5 4 8 5 5 3 4 8 5 2 9 10 9 7 9 18 18
33 26 17 25 16 13 1 3 5 7 6 15 4 5 5 7 5 8 10 9 10 11 8 3 7 13 11 6 4 6 3 9 1 4 4 3 3 7 9 9 9 9 10 11 14
27 14 15 17 16 16 2 6 7 12 17 19 10 6 7 8 7 7 8 10 10 9 7 7 3 5 5 5 2 3 1 5 4 1 4 5 4 4 6 7 8 7 6 12 11
9 4 13 9 13 4 6 7 10 17 17 13 9 7 10 9 9 7 8 7 10 10 6 4 6 9 5 2 4 4 2 1 4 4 3 1 5 6 6 8 10 9 9 10 11
5 4 5 17 3 4 10 6 7 19 19 15 1 2 7 8 8 7 7 8 10 5 7 9 6 4 7 6 4 9 10 8 5 7 3 5 6 3 8 9 9 8 9 10 10
3 4 15 15 5 9 10 17 19 20 19 17 7 6 6 8 6 3 9 7 6 5 2 3 2 2 8 7 6 3 4 5 4 4 5 4 6 4 6 6 8 9 8 9 10
3 3 4 2 4 7 9 12 15 14 19 19 4 3 5 6 7 7 8 8 4 4 1 7 2 6 7 8 6 4 6 3 2 2 5 7 8 7 6 8 8 9 8 9 8
3 5 5 4 6 9 9 11 17 16 9 7 5 5 7 5 5 7 9 10 8 7 4 6 4 2 5 7 10 13 11 10 12 10 9 10 9 8 7 8 10 10 8 9 11
3 3 6 10 8 8 7 5 13 17 13 14 5 8 9 8 7 8 9 5 4 4 2 0 4 6 5 8 12 17 17 15 19 13 11 16 10 10 8 4 4 9 9 10 17
7 11 4 6 6 6 6 7 12 14 8 9 10 7 8 5 5 4 4 5 4 3 4 3 4 2 4 7 11 17 13 15 17 11 3 4 5 4 7 2 8 8 10 19 18
Wind_Direction
15 15 14 8 352 332 327 325 324 322 320 320 314 306 307 306 298 294 252 246 263 261 289 283 273 250 255 262 259 260 336 290 299 131 142 145 95 22 122 150 200 210 149 154 158
14 14 14 12 2 347 335 326 322 320 322 325 316 320 326 332 319 259 229 251 251 263 285 279 287 241 237 263 271 141 158 252 203 65 89 68 69 82 173 161 181 123 130 152 163
11 10 11 10 7 356 343 336 328 328 330 330 326 331 339 349 316 240 224 226 238 258 264 283 276 249 238 247 252 215 218 336 64 89 91 76 50 33 348 138 126 140 149 154 168
7 7 7 7 6 6 358 341 335 335 343 340 335 333 331 9 44 202 188 202 227 260 274 283 286 313 252 256 251 201 222 104 114 113 96 87 91 99 266 294 136 138 156 159 155
4 5 3 4 3 3 2 348 338 338 344 341 335 331 342 218 253 195 178 185 206 235 257 267 287 271 256 290 277 336 249 98 100 108 112 117 131 136 258 283 144 149 164 171 120
1 1 360 359 357 359 0 352 334 326 323 320 330 333 316 258 163 164 183 192 207 225 265 261 260 293 273 281 227 24 115 122 118 146 151 136 146 117 252 254 235 172 153 102 88
357 357 356 354 353 349 351 348 327 311 304 305 328 350 265 249 157 132 191 217 237 240 254 303 315 6 333 323 332 34 8 332 130 179 116 117 117 212 201 198 142 111 99 96 91
354 353 351 350 349 344 337 337 323 302 297 302 321 36 256 237 190 171 213 230 235 262 288 310 347 332 275 306 331 107 11 316 255 154 180 133 187 254 128 124 114 106 100 87 85
350 348 347 346 346 340 331 330 317 297 294 297 333 175 279 210 215 211 218 233 208 249 276 295 330 281 326 322 346 15 240 261 276 185 151 182 150 157 141 137 141 143 134 119 110
347 346 344 343 341 339 329 329 314 281 291 301 263 327 269 249 196 213 219 244 218 220 257 226 270 256 319 6 248 243 228 261 233 188 152 157 147 160 163 158 154 153 146 138 132
345 345 342 340 338 339 332 343 355 358 203 227 243 261 290 177 132 266 231 250 310 222 227 255 195 238 241 246 243 269 279 270 356 116 135 153 146 172 174 159 161 164 152 152 148
342 343 342 337 335 336 339 322 333 282 294 257 265 263 266 275 199 205 240 165 228 249 235 298 224 237 237 250 254 267 276 291 39 117 107 95 135 197 177 178 172 168 161 148 138
338 339 340 336 333 357 330 297 339 348 299 295 238 225 244 207 224 246 181 211 233 219 243 215 244 228 242 258 261 270 298 298 240 126 94 118 311 264 188 184 170 173 159 148 149
330 333 338 340 344 333 311 350 339 345 332 267 195 222 211 193 236 244 192 193 239 232 246 233 246 263 152 316 347 321 292 317 288 62 210 119 259 275 199 193 182 168 148 147 143
325 326 328 343 304 312 309 326 324 333 326 158 147 143 171 169 264 228 213 184 253 279 310 261 251 174 152 263 262 250 255 328 256 178 55 305 86 262 245 189 190 174 145 150 151
322 321 324 333 307 289 321 323 316 21 248 175 131 176 163 213 249 158 172 162 254 275 289 288 276 217 182 235 223 78 42 358 18 61 6 254 195 278 247 195 155 153 145 155 148
319 314 310 297 252 305 327 318 12 226 304 157 166 164 192 207 230 177 172 191 224 259 273 286 263 294 297 2 112 84 57 353 348 355 229 263 238 237 175 104 149 165 149 152 150
319 316 304 278 277 285 302 354 248 273 270 285 103 286 187 206 214 205 169 208 225 243 276 266 292 197 201 177 182 182 150 161 222 225 257 336 291 289 88 63 57 65 146 141 146
323 324 286 275 248 246 207 236 230 220 279 346 335 184 269 242 253 199 184 192 220 220 209 277 290 321 188 135 150 263 176 211 181 274 39 247 21 27 73 80 74 69 93 138 149
331 314 269 277 212 209 176 239 255 269 318 310 308 334 317 266 227 238 203 204 224 241 183 231 313 316 114 122 182 107 248 22 357 162 280 283 285 178 115 130 121 125 134 147 150
319 289 279 179 189 105 218 224 242 261 261 264 281 300 298 319 346 309 226 235 215 219 223 152 119 285 14 133 167 324 284 241 152 147 175 315 280 200 161 167 162 176 172 155 150
287 271 273 162 126 202 231 242 236 270 285 288 355 290 293 311 314 326 322 347 23 3 213 185 152 221 228 287 308 204 205 179 138 274 226 180 258 146 155 172 158 176 160 166 161
269 274 288 282 220 234 263 264 252 264 269 269 249 209 241 282 306 288 311 327 4 64 34 7 164 131 330 340 331 240 231 203 163 130 199 195 256 225 170 137 163 175 179 175 173
280 281 246 205 239 251 285 292 288 274 254 264 278 270 269 251 267 283 296 296 303 80 37 76 30 152 192 211 229 275 266 297 196 152 235 232 249 273 238 186 203 159 152 138 172
242 260 308 297 245 238 242 262 283 292 299 262 247 223 268 278 274 286 298 300 290 179 143 118 186 270 266 271 277 274 272 268 238 219 233 255 245 233 241 220 206 183 154 131 141
291 315 356 302 292 303 289 285 287 263 270 293 333 295 222 237 222 245 271 287 250 341 211 256 230 199 257 268 273 274 283 284 283 278 227 235 246 243 246 261 192 174 158 111 102
309 330 288 276 297 305 272 251 278 297 269 281 287 295 301 323 7 347 318 291 244 192 214 201 166 179 249 234 263 257 235 252 272 278 251 265 247 58 21 150 147 118 109 115 113